Regional Weather Roundup
Issued by NWS

Home | Current Version | Previous Version | Graphics & Text | Print | Product List | Glossary On
Versions: 1 2 3 4 5 6 7 8 9 10 11 12 13 14 15 16 17 18 19 20 21 22 23 24 25 26 27
000
ASUS45 KSLC 270210
RWRUT

UTAH REGIONAL WEATHER ROUNDUP
NATIONAL WEATHER SERVICE SALT LAKE CITY UT
800 PM MDT WED APR 26 2017

UTZ001>011-023>025-270300-

NORTHERN UTAH

CITY           SKY/WX    TMP DP  RH WIND       PRES   REMARKS
BRIGHAM CITY   CLOUDY    47  41  78 S3        29.75F
HILL AFB       CLOUDY    43  40  88 E8        29.74F
LOGAN          LGT RAIN  47  39  74 S10       29.72F
OGDEN          CLOUDY    45  41  86 SE6       29.74F
SALT LAKE CITY LGT RAIN  48  43  82 N3        29.74F
TOOELE VALLEY  DRIZZLE   45  43  93 CALM      29.76F
WENDOVER       CLOUDY    52  39  61 NW8       29.74R
HEBER CITY     MIX PCPN  43  36  75 CALM      29.75S
WEST JORDAN    CLOUDY    48  48 100 N5        29.75F

$$

UTZ011>015-024>027-270300-

CENTRAL/NORTHEAST UTAH

CITY           SKY/WX    TMP DP  RH WIND       PRES   REMARKS
PROVO AIRPORT  RAIN      48  42  80 CALM      29.75S
MOAB/CANYONLAN CLOUDY    60  25  26 W16G25    29.70R
DELTA          CLOUDY    48  43  81 N22G40    29.74R
PRICE          LGT RAIN  46  36  68 E9        29.76S
ROOSEVELT      CLOUDY    50  34  53 SW17      29.76F
VERNAL         CLOUDY    52  28  39 W18G30    29.72F

$$

UTZ013>016-019>022-027-270300-

SOUTHERN UTAH

CITY           SKY/WX    TMP DP  RH WIND       PRES   REMARKS
BRYCE CANYON   CLOUDY    49  26  41 SW14G26   29.81F
CEDAR CITY     MOCLDY    58  32  37 SW15G22   29.74F
MILFORD        CLOUDY    58  43  57 NW10      29.71R
ST GEORGE      CLOUDY    74  31  20 W13       29.67F
HANKSVILLE     MOCLDY    63  28  27 N3        29.68F
BLANDING       CLOUDY    56  19  23 W5        29.83F

$$

REGIONAL REPORTS     COLORADO/ARIZONA

CITY           SKY/WX    TMP DP  RH WIND       PRES   REMARKS
CRAIG, CO      CLOUDY    47  28  47 W12       29.74S
GRAND JUNCTION CLOUDY    58  23  26 W3        29.72F
RIFLE, CO      CLOUDY    49  34  56 CALM      29.77S
MONTROSE, CO   CLOUDY    53  25  33 N5        29.76F
CORTEZ, CO     CLOUDY    55  19  24 W5        29.78F
COLORADO CITY    N/A     66  30  26 W9        29.81F
PAGE, AZ       CLEAR     69  31  24 W8G17     29.70F
GRAND CANYON   MOCLDY    58  30  34 W9G17     29.89S
KINGMAN, AZ    PTCLDY    73  28  18 SW24G36   29.77S
FLAGSTAFF, AZ  PTCLDY    56  24  29 SW18G26   29.91R

$$

REGIONAL REPORTS    NEVADA/IDAHO/WYOMING

CITY           SKY/WX    TMP DP  RH WIND       PRES   REMARKS
LAS VEGAS, NV  PTCLDY    83  29  14 SW10G20   29.63F
ELY, NY        MOCLDY    44  39  82 W14       29.81F
ELKO, NV       MOCLDY    46  39  76 NW9       29.75F
POCATELLO, ID  CLOUDY    43  40  89 S10       29.70F
BURLEY, ID     MOCLDY    47  39  74 W8        29.69F
FORT BRIDGER,  DRIZZLE   38  37  94 SW14      29.77F WCI  30
EVANSTON, WY   SNOW      33  33 100 SW10      29.75F VSB 1/4 WCI  25
ROCK SPRINGS,  CLOUDY    43  28  55 W10       29.72F
KEMMERER, WY   LGT SNOW  34  32  93 SW15      29.74S WCI  24

$$




USA.gov is the U.S. government's official web portal to all federal, state and local government web resources and services.